Miscellaneous Local Product
Issued by NWS North Platte, NE

Home | Current Version | Previous Version | Text Only | Print | Product List | Glossary On
Versions: 1 2 3 4 5 6 7 8 9 10 11 12 13 14 15 16 17 18 19 20 21 22 23 24 25 26 27 28 29 30 31 32 33 34 35 36 37 38 39 40 41 42 43 44 45 46 47 48 49 50
000
AXUS43 KLBF 181510
MISLBF


WESTERN AND NORTH CENTRAL NEBRASKA HOURLY WEATHER ROUNDUP
NATIONAL WEATHER SERVICE NORTH PLATTE NE
1000 AM CDT FRI APR 18 2014

***STATIONS NOT REPORTING VARIABLES SUCH AS SKY/WEATHER OR
PRESSURE ARE PROVIDED BY THE NEBRASKA DEPARTMENT OF
ROADS...RAWS...AND APRS NETWORKS...AND ARE NOT UNDER
NATIONAL WEATHER SERVICE QUALITY CONTROL***

...OBSERVATIONS IN AND NEAR THE EASTERN PANHANDLE OF NEBRASKA...

CITY           SKY/WX    TMP DP  RH WIND       PRES   REMARKS
PINE RIDGE     PTSUNNY   51  38  60 S16G24    29.86F
CHADRON        PTSUNNY   55  39  54 CALM      29.84F
ALLIANCE       PTSUNNY   50  39  66 S12       29.92S
SIDNEY         SUNNY     56  39  53 SW13      29.97S
WHITECLAY        N/A     49  37  63 S18         N/A
LISCO            N/A     50  36  59 E10         N/A
BIG SPRINGS      N/A     41  37  86 SW6         N/A
LEWELLEN         N/A     48  35  62 S9          N/A
$$

...OBSERVATIONS IN SOUTHWEST NEBRASKA AND FAR NORTHEAST COLORADO...

CITY           SKY/WX    TMP DP  RH WIND       PRES   REMARKS
WRAY           FAIR      52  38  59 S9        30.02F
HOLYOKE        FAIR      54  39  58 S13       30.00F
IMPERIAL       MOSUNNY   50  37  61 S17       30.02F
OGALLALA       MOSUNNY   48  37  64 SW12      30.01F
NORTH PLATTE   MOSUNNY   49  38  65 S14       30.04F
MCCOOK         SUNNY     51  41  68 S15       30.09F
LEXINGTON      SUNNY     51  41  69 S16G22    30.11F
PAXTON           N/A     44  39  83 S12         N/A
SUTHERLAND       N/A     44  36  74 S14         N/A
MEDICINE CREEK   N/A     43  39  87 SW8         N/A
GOTHENBURG       N/A     49  41  73 SW7         N/A
CALLAWAY         N/A     44  39  84 S21         N/A
$$

...OBSERVATIONS IN NORTH CENTRAL NEBRASKA...

CITY           SKY/WX    TMP DP  RH WIND       PRES   REMARKS
VALENTINE      SUNNY     53  37  54 S21G26    29.92F
THEDFORD       MOSUNNY   53  37  53 S20       29.98F
AINSWORTH      SUNNY     53  38  57 S23G36    29.95F
O`NEILL        SUNNY     55  38  52 S21G29    30.06F
ORD            SUNNY     51  37  58 S20G29    30.10F
BROKEN BOW     SUNNY     50  39  66 S25       30.07F
BROWNLEE         N/A     54  38  54 S23         N/A
SPRINGVIEW       N/A     53  39  60 SW9G21      N/A
DUNNING          N/A     51  37  57 SW12        N/A
BREWSTER         N/A     54  38  53 S20         N/A
ROSE             N/A     53  41  64 SE21        N/A
NEWPORT          N/A     53  39  59 S24         N/A
COMSTOCK         N/A     54  41  61 S15         N/A
CHAMBERS         N/A     57  38  50 S5G24       N/A
EWING            N/A     54  40  59 S16G26      N/A
$$

...SOME WEATHER OBSERVATIONS FROM AROUND THE REGION...

CITY           SKY/WX    TMP DP  RH WIND       PRES   REMARKS
DENVER         MOSUNNY   64  29  26 S12       29.99F
LARAMIE        CLOUDY    52  23  32 S14G25    30.05S
CHEYENNE       PTSUNNY   55  33  43 S9        29.99S
SCOTTSBLUFF    MOSUNNY   53  39  59 E9        29.92F
RAPID CITY     PTSUNNY   44  38  79 SE9       29.80F
PIERRE         MOSUNNY   47  32  56 SE20      29.90F
WINNER         FAIR      55  37  50 S25G39    29.92R
SIOUX FALLS    CLOUDY    43  32  65 SE14      30.20F
OMAHA          SUNNY     48  33  56 S9        30.28S HAZE
GRAND ISLAND   SUNNY     53  37  54 S20       30.17S
KANSAS CITY    SUNNY     50  36  58 CALM      30.32S
WICHITA        MOSUNNY   50  39  66 SE8       30.27F HAZE
HAYS           SUNNY     54  41  62 S16       30.19S
LIBERAL        SUNNY     48  41  76 S15       30.20S
GOODLAND       SUNNY     48  37  65 S22       30.06F
$$



USA.gov is the U.S. government's official web portal to all federal, state and local government web resources and services.